カタログに戻る

STARLINK-31520

運用中通信VLEO
NORAD 59210·PAYLOAD·🇺🇸 United States

打ち上げ Mar 11, 2024 から Vandenberg Space Force Base

Loading…

次のパス (今後24時間)

TLE

最新Source: CelesTrak SupGP

元期: Sep 15, 2026, 01:46 UTC

1 59210C 24046K   26258.07409722  .00054643  00000+0  16147-2 0  2587
2 59210  53.1586 354.7723 0001099  91.2334  58.3473 15.34358219    11

AllMySatでSTARLINK-31520をリアルタイム追跡

Download on the App Store